Regional Weather Roundup
Issued by NWS

Home | Current Version | Previous Version | Graphics & Text | Print | Product List | Glossary On
Versions: 1 2 3 4 5 6 7 8 9 10 11 12 13 14 15 16 17 18 19 20 21 22 23 24 25 26 27 28 29 30 31 32 33 34 35 36 37 38 39 40 41 42 43 44 45 46 47 48 49 50
000
ASUS44 KMEG 210810
RWRTN
TENNESSEE HOURLY STATE WEATHER ROUNDUP
NATIONAL WEATHER SERVICE MEMPHIS TN
200 AM CST TUE NOV 21 2017

TNZ002-004-019-021-049-052-054-088>092-210900-
WEST TENNESSEE

CITY           SKY/WX    TMP DP  RH WIND       PRES   REMARKS
MEMPHIS INTL   PTCLDY    40  30  67 S7        30.01F
NWS MEMPHIS      N/A     38 N/A N/A MISG        N/A
JACKSON        CLEAR     41  30  65 S10       30.04S
DYERSBURG      CLOUDY    38  28  67 S3        30.02F
SOMERVILLE     CLEAR     37  30  75 VRB5      30.01F WCI  34
COVINGTON      CLEAR     34  28  80 S6        30.02F WCI  29
UNION CITY     CLEAR     36  28  75 S7        30.01F WCI  30
BOLIVAR        CLEAR     37  28  70 CALM      30.03F
PARIS          CLEAR     36  28  75 SW5       30.02S WCI  32
HUNTINGDON     CLEAR     37  28  70 S7        30.02S WCI  32
LEXINGTON      CLEAR     36  28  75 S5        30.05S WCI  32
SELMER         CLEAR     39  28  65 S6        30.04S WCI  35
SAVANNAH       CLEAR     37  30  75 S3        30.05F
$$

TNZ008-025-027-028-033-062-065-066-210900-
NORTH MIDDLE TENNESSEE

CITY           SKY/WX    TMP DP  RH WIND       PRES   REMARKS
NASHVILLE      CLEAR     39  28  64 SE3       30.06F
PORTLAND       CLEAR     41  30  65 S9        30.04R
CLARKSVILLE    CLEAR     32  24  72 S6        30.03S WCI  26
SMYRNA         CLEAR     38  29  70 S3        30.08F
COOKEVILLE     CLEAR     39  32  75 S5        30.07S
GALLATIN       CLEAR     37  28  70 CALM      30.09S
CROSSVILLE     CLOUDY    44  30  57 S10G20    30.09F
$$

TNZ061-075-076-078-094-096-097-210900-
SOUTH MIDDLE TENNESSEE

CITY           SKY/WX    TMP DP  RH WIND       PRES   REMARKS
FAYETTEVILLE   CLEAR     43  32  65 S8        30.09R
TULLAHOMA      CLEAR     45  32  61 S9        30.07F
WINCHESTER     CLEAR     43  34  70 SE8       30.10S
MCMINNVILLE    CLEAR     48  34  57 S8G16     30.07F
COLUMBIA       CLEAR     39  28  65 CALM      30.05S
SHELBYVILLE    CLEAR     41  32  70 S8        30.08S
$$

TNZ017-018-042-046-047-210900-
NORTHEAST TENNESSEE

CITY           SKY/WX    TMP DP  RH WIND       PRES   REMARKS
TRI CITIES     CLOUDY    27  23  85 CALM      30.13R
ELIZABETHTON   CLEAR     36  25  64 NE6       30.13S WCI  31
$$

TNZ012-013-036-069-073-074-210900-
CENTRAL EAST TENNESSEE

CITY           SKY/WX    TMP DP  RH WIND       PRES   REMARKS
KNOXVILLE      CLOUDY    32  32 100 SE3       30.12F
OAK RIDGE      CLOUDY    32  30  92 CALM      30.14F
DOWNTOWN KNOXV FOG       32  32 100 CALM      30.14F VSB 1/4
GATLINBURG     CLEAR     28  28 100 CALM      30.14S
MORRISTOWN     CLEAR     32  25  74 CALM      30.12S
JACKSBORO      CLEAR     30  28  93 CALM      30.14S
$$

TNZ083-085-099-210900-
SOUTHEAST TENNESSEE

CITY           SKY/WX    TMP DP  RH WIND       PRES   REMARKS
CHATTANOOGA    CLOUDY    35  31  85 CALM      30.14F
DAYTON         SUNNY     30  30 100 CALM      30.12F
$$

SKY/WX REPORTED AS FAIR MEANS FEW OR NO CLOUDS BELOW
12 THOUSAND FEET.





USA.gov is the U.S. government's official web portal to all federal, state and local government web resources and services.